Home > Weather > Modena > Past weeks

Flag for Italy Weather for the Past 2 Weeks in Modena, Italy

Now
61 °F

Sunny.


Feels Like: 61 °F
Forecast: 48 / 69 °F
Wind: 8 mph from West

Location: Bologna / Borgo Panigale

Current Time: May 3, 2016 at 9:25:18 AM

Latest Report: May 3, 2016 at 8:20 AM


Visibility: 10 mi

Pressure: 29.95 "Hg

Humidity: 63%

Dew Point: 48 °F

Location of ModenaLocation

Historic Weather in Modena — Graph

°F

Modena Temperature Yesterday

Maximum temperature yesterday: 63 °F (at 4:20 PM)
Minimum temperature yesterday: 50 °F (at 5:50 AM)
Average temperature yesterday: 56 °F

High & Low Weather Summary for the Past Weeks

 TemperatureHumidityPressure
High75 °F (Apr 18, 1:20 PM)100% (Apr 24, 1:20 AM)30.30 "Hg (Apr 24, 1:20 AM)
Low39 °F (Apr 26, 3:20 AM)20% (Apr 25, 6:50 PM)29.53 "Hg (Apr 24, 2:50 AM)
Average57 °F68%29.91 "Hg
* Reported Apr 18 8:20 AM — May 3 7:50 AM, Modena, Weather by CustomWeather, © 2016

Note: Actual official high and low records may vary slightly from our data, if they occured in-between our weather recording intervals... More about our weather records

Advertising

Modena Weather History for the Previous 24 Hours

Scroll right to see more
 ConditionsComfort  
Time TempWeatherWind HumidityBarometerVisibility
7:50 AM
Tue, May 3
59 °FPassing clouds.6 mph72%29.95 "HgN/A
7:20 AM54 °FSunny.5 mph88%29.95 "Hg10 mi
6:50 AM50 °FClear.2 mph88%29.95 "Hg10 mi
6:20 AM48 °FClear.2 mph94%29.92 "Hg10 mi
5:50 AM48 °FClear.5 mph94%29.92 "Hg10 mi
4:50 AM50 °FClear.1 mph94%29.92 "Hg10 mi
3:20 AM52 °FClear.5 mph88%29.92 "Hg10 mi
2:50 AM54 °FClear.5 mph88%29.92 "Hg10 mi
1:50 AM55 °FClear.6 mph82%29.95 "Hg10 mi
1:20 AM55 °FClear.5 mph82%29.95 "Hg10 mi
12:50 AM54 °FPassing clouds.6 mph88%29.95 "HgN/A
11:50 PM
Mon, May 2
55 °FPassing clouds.3 mph88%29.95 "HgN/A
11:20 PM55 °FPassing clouds.6 mph88%29.95 "HgN/A
10:50 PM55 °FPassing clouds.5 mph94%29.95 "HgN/A
10:20 PM57 °FPassing clouds.5 mph88%29.95 "HgN/A
9:50 PM57 °FPassing clouds.3 mph88%29.95 "HgN/A
9:20 PM57 °FPartly sunny.5 mph88%29.95 "HgN/A
8:50 PM59 °FPartly sunny.6 mph88%29.95 "HgN/A
8:20 PM59 °FPartly sunny.6 mph88%29.92 "HgN/A
7:50 PM59 °FPartly sunny.7 mph88%29.92 "HgN/A
7:20 PM59 °FPartly sunny.6 mph88%29.89 "HgN/A
6:50 PM59 °FPartly sunny.7 mph82%29.89 "HgN/A
6:20 PM59 °FPartly sunny.3 mph82%29.89 "HgN/A
5:50 PM61 °FPartly sunny.8 mph77%29.89 "HgN/A
5:20 PM61 °FPartly sunny.6 mph77%29.89 "HgN/A
4:50 PM63 °FPartly sunny.6 mph68%29.89 "HgN/A
4:20 PM63 °FPartly sunny.3 mph73%29.89 "HgN/A
3:50 PM61 °FBroken clouds.6 mph72%29.89 "HgN/A
3:20 PM61 °FBroken clouds.6 mph77%29.89 "HgN/A
2:50 PM59 °FBroken clouds.7 mph82%29.92 "HgN/A
2:20 PM59 °FBroken clouds.6 mph82%29.92 "HgN/A
1:50 PM59 °FBroken clouds.7 mph77%29.92 "HgN/A
1:20 PM57 °FBroken clouds.8 mph88%29.92 "Hg4 mi
12:50 PM55 °FBroken clouds.6 mph94%29.92 "Hg4 mi
12:20 PM55 °FBroken clouds.6 mph88%29.92 "Hg4 mi
11:50 AM54 °FFog.9 mph94%29.92 "Hg3 mi
11:20 AM54 °FLight rain. Broken clouds.8 mph94%29.92 "Hg2 mi
10:50 AM52 °FLight rain. Broken clouds.7 mph100%29.92 "Hg1 mi
10:20 AM52 °FLight rain. Broken clouds.8 mph94%29.92 "Hg2 mi
9:50 AM52 °FLight rain. Broken clouds.9 mph94%29.89 "Hg2 mi
9:20 AM52 °FRain. Broken clouds.8 mph94%29.89 "Hg2 mi
Weather by CustomWeather, © 2016

See weather overviewHow to use our weather pages